Flag for Australia Weather past 2 weeks in Geelong, Victoria, Australia

Now
72 °F

Mild.


Feels Like: 77 °F
Forecast: 52 / 72 °F
Wind: 8 mph from South

Location: Geelong Airport Aws

Current Time: Mar 3, 2015 at 3:53:57 PM

Latest Report: Mar 3, 2015 at 3:00 PM


Visibility: N/A

Pressure: 30.01 "Hg

Humidity: 46%

Dew point: 51 °F

Location of GeelongLocation

Historic Weather in Geelong — Graph

°F

Geelong temperature yesterday

Maximum temperature yesterday: 70 °F (at 4:00 PM)
Minimum temperature yesterday: 47 °F (at 7:00 AM)
Average temperature yesterday: 59 °F

Past Weeks' High & Low Weather Summary

 TemperatureHumidityPressure
High96 °F (Feb 22, 3:00 PM)94% (Feb 20, 4:00 AM)30.19 "Hg (Feb 20, 4:00 AM)
Low47 °F (Mar 2, 7:00 AM)29% (Feb 21, 4:00 PM)29.50 "Hg (Feb 28, 6:00 PM)
Average67 °F74%29.96 "Hg
* Reported Feb 16 1:00 PM — Mar 3 1:00 PM, Geelong, Weather by CustomWeather, © 2015

Note: Actual official high and low records may vary slightly from our data, if they occured in-between our weather recording intervals... More about our weather records

Advertising

Geelong weather history for previous 24 hours

 ConditionsComfort  
Time TempWeatherWind HumidityBarometerVisibility
1:00 PM
Tue, Mar 3
69 °FMild.6 mph54%30.03 "HgN/A
12:00 PM69 °FMild.5 mph53%30.05 "HgN/A
10:00 AM66 °FMild.6 mph62%30.05 "HgN/A
9:00 AM63 °FMild.8 mph74%30.05 "HgN/A
7:00 AM58 °FCool.5 mph92%30.01 "HgN/A
6:00 AM57 °FCool.3 mph91%30.00 "HgN/A
4:00 AM59 °FCool.3 mph90%29.99 "HgN/A
3:00 AM60 °FCool.6 mph89%29.99 "HgN/A
1:00 AM61 °FCool.3 mph81%30.01 "HgN/A
12:00 AM62 °FCool.3 mph80%29.99 "HgN/A
10:00 PM
Mon, Mar 2
62 °FMild.5 mph79%29.99 "HgN/A
9:00 PM63 °FMild.6 mph75%29.99 "HgN/A
7:00 PM67 °FMild.7 mph58%29.95 "HgN/A
6:00 PM69 °FMild.7 mph56%29.93 "HgN/A
4:00 PM70 °FMild.5 mph45%29.96 "HgN/A
3:00 PM68 °FMild.3 mph47%29.97 "HgN/A
Weather by CustomWeather, © 2015

See weather overviewHow to use our weather pages